FIN7LP EGLL-EFHK

Flight info

Callsign FIN7LP
Flight time 2h 14m
Altitude 41000
Route BPK Q295 MATCH P144 SAMHO DCT LARGA DCT SOPTO DCT AMRAM DCT INVOL DCT ELRID DCT RIRIP Y364 LAKUT
Aircraft A359/H-SABDE1E2E3FGHIJ2J3J4J5M1P2RWXY/LB2D1

Departure

Time 2026-04-24 05:49
Airport London Heathrow Airport (EGLL)

Arrival

Time 2026-04-24 08:03
Airport Helsinki Vantaa Airport (EFHK)
Time Latitude Longitude Altitude Speed Heading
2026-04-24 05:24 51.46839 -0.45829 96 ft 0 kts 359°
2026-04-24 05:40 51.46835 -0.45829 92 ft 3 kts 359°
2026-04-24 05:40 51.46808 -0.45828 93 ft 4 kts 359°
2026-04-24 05:40 51.46783 -0.45828 93 ft 1 kts 359°
2026-04-24 05:40 51.46761 -0.45823 93 ft 4 kts 323°
2026-04-24 05:41 51.46749 -0.45792 94 ft 4 kts 271°
2026-04-24 05:41 51.46749 -0.45751 93 ft 4 kts 269°
2026-04-24 05:41 51.46749 -0.45734 93 ft 0 kts 269°
2026-04-24 05:43 51.46749 -0.45751 93 ft 6 kts 269°
2026-04-24 05:44 51.46748 -0.45876 96 ft 15 kts 270°
2026-04-24 05:44 51.46748 -0.46069 96 ft 20 kts 270°
2026-04-24 05:44 51.46747 -0.46295 96 ft 23 kts 270°
2026-04-24 05:44 51.46749 -0.46569 96 ft 25 kts 269°
2026-04-24 05:45 51.46747 -0.46860 96 ft 27 kts 270°
2026-04-24 05:45 51.46747 -0.47168 96 ft 28 kts 269°
2026-04-24 05:45 51.46745 -0.47490 96 ft 30 kts 269°
2026-04-24 05:45 51.46745 -0.47806 94 ft 29 kts 270°
2026-04-24 05:46 51.46744 -0.48139 92 ft 30 kts 270°
2026-04-24 05:46 51.46743 -0.48453 94 ft 27 kts 269°
2026-04-24 05:46 51.46742 -0.48670 92 ft 17 kts 269°
2026-04-24 05:46 51.46660 -0.48748 94 ft 17 kts 179°
2026-04-24 05:47 51.46546 -0.48792 96 ft 17 kts 184°
2026-04-24 05:47 51.46478 -0.48666 96 ft 17 kts 90°
2026-04-24 05:47 51.46478 -0.48644 94 ft 0 kts 89°
2026-04-24 05:48 51.46478 -0.48639 94 ft 5 kts 90°
2026-04-24 05:48 51.46480 -0.48214 95 ft 74 kts 89°
2026-04-24 05:49 51.46484 -0.47030 97 ft 136 kts 90°
2026-04-24 05:49 51.46495 -0.45315 454 ft 157 kts 88°
2026-04-24 05:49 51.46521 -0.43549 1140 ft 164 kts 87°
2026-04-24 05:49 51.46861 -0.41699 1562 ft 187 kts 57°
2026-04-24 05:50 51.47746 -0.39965 1948 ft 215 kts 50°
2026-04-24 05:50 51.48788 -0.38133 2484 ft 232 kts 50°
2026-04-24 05:50 51.49898 -0.36133 3212 ft 241 kts 51°
2026-04-24 05:50 51.50992 -0.34098 3945 ft 247 kts 53°
2026-04-24 05:51 51.51869 -0.31707 4717 ft 249 kts 69°
2026-04-24 05:51 51.52479 -0.29074 5522 ft 253 kts 72°
2026-04-24 05:51 51.53056 -0.26387 6410 ft 255 kts 72°
2026-04-24 05:51 51.53671 -0.23715 7266 ft 258 kts 67°
2026-04-24 05:52 51.54722 -0.21337 8097 ft 266 kts 44°
2026-04-24 05:52 51.56292 -0.19797 8915 ft 273 kts 27°
2026-04-24 05:52 51.58067 -0.18566 9771 ft 278 kts 25°
2026-04-24 05:52 51.59910 -0.17544 10634 ft 284 kts 19°
2026-04-24 05:53 51.61879 -0.16638 11074 ft 304 kts 18°
2026-04-24 05:53 51.63992 -0.15688 11446 ft 325 kts 18°
2026-04-24 05:53 51.66202 -0.14689 11847 ft 342 kts 18°
2026-04-24 05:53 51.68523 -0.13636 12502 ft 350 kts 18°
2026-04-24 05:54 51.70875 -0.12489 13221 ft 356 kts 22°
2026-04-24 05:54 51.73046 -0.10564 13951 ft 358 kts 40°
2026-04-24 05:54 51.74679 -0.07558 14627 ft 359 kts 61°
2026-04-24 05:54 51.75596 -0.03805 15273 ft 361 kts 77°
2026-04-24 05:55 51.76110 0.00183 15900 ft 366 kts 82°
2026-04-24 05:55 51.76461 0.04284 16524 ft 371 kts 84°
2026-04-24 05:55 51.76744 0.08434 17203 ft 375 kts 85°
2026-04-24 05:55 51.77019 0.12652 17899 ft 379 kts 85°
2026-04-24 05:56 51.77309 0.16864 18576 ft 384 kts 85°
2026-04-24 05:56 51.77761 0.21131 19192 ft 390 kts 77°
2026-04-24 05:56 51.78697 0.25276 19831 ft 396 kts 66°
2026-04-24 05:56 51.80213 0.29041 20474 ft 404 kts 52°
2026-04-24 05:57 51.82236 0.32220 21103 ft 409 kts 44°
2026-04-24 05:57 51.84302 0.35426 21716 ft 413 kts 45°
2026-04-24 05:57 51.86416 0.38613 22337 ft 418 kts 45°
2026-04-24 05:57 51.88540 0.41806 22939 ft 422 kts 45°
2026-04-24 05:58 51.90694 0.45078 23536 ft 426 kts 46°
2026-04-24 05:58 51.92853 0.48408 24141 ft 430 kts 46°
2026-04-24 05:58 51.95023 0.51798 24606 ft 435 kts 46°
2026-04-24 05:58 51.97208 0.55238 25079 ft 439 kts 46°
2026-04-24 05:59 51.99409 0.58721 25559 ft 444 kts 47°
2026-04-24 05:59 52.01632 0.62157 26051 ft 449 kts 44°
2026-04-24 05:59 52.04104 0.65327 26516 ft 455 kts 39°
2026-04-24 05:59 52.06666 0.68384 27004 ft 459 kts 38°
2026-04-24 06:00 52.09284 0.71415 27495 ft 463 kts 37°
2026-04-24 06:00 52.11940 0.74445 27949 ft 467 kts 37°
2026-04-24 06:00 52.14620 0.77490 28389 ft 472 kts 38°
2026-04-24 06:00 52.17331 0.80576 28825 ft 476 kts 38°
2026-04-24 06:01 52.20018 0.83647 29259 ft 480 kts 38°
2026-04-24 06:01 52.22746 0.86778 29690 ft 484 kts 38°
2026-04-24 06:01 52.25379 0.89809 30091 ft 487 kts 38°
2026-04-24 06:01 52.28167 0.93027 30484 ft 491 kts 38°
2026-04-24 06:02 52.30966 0.96264 30890 ft 493 kts 38°
2026-04-24 06:02 52.33775 0.99516 31235 ft 496 kts 38°
2026-04-24 06:02 52.36605 1.02798 31461 ft 501 kts 38°
2026-04-24 06:02 52.39431 1.06082 31799 ft 504 kts 38°
2026-04-24 06:03 52.42303 1.09424 32133 ft 507 kts 38°
2026-04-24 06:03 52.45193 1.12793 32466 ft 510 kts 38°
2026-04-24 06:03 52.48061 1.16143 32767 ft 512 kts 38°
2026-04-24 06:03 52.50969 1.19544 33071 ft 515 kts 38°
2026-04-24 06:04 52.53899 1.22977 33380 ft 517 kts 38°
2026-04-24 06:04 52.56832 1.26418 33672 ft 519 kts 39°
2026-04-24 06:04 52.59786 1.29890 33936 ft 522 kts 39°
2026-04-24 06:04 52.62748 1.33377 34193 ft 524 kts 39°
2026-04-24 06:05 52.65722 1.36885 34499 ft 525 kts 39°
2026-04-24 06:05 52.68688 1.40386 34874 ft 523 kts 38°
2026-04-24 06:05 52.71646 1.43883 35260 ft 521 kts 38°
2026-04-24 06:05 52.74581 1.47361 35636 ft 519 kts 38°
2026-04-24 06:06 52.77517 1.50846 35986 ft 517 kts 38°
2026-04-24 06:06 52.80402 1.54278 36220 ft 518 kts 38°
2026-04-24 06:06 52.83336 1.57774 36467 ft 518 kts 38°
2026-04-24 06:06 52.86266 1.61272 36765 ft 517 kts 38°
2026-04-24 06:07 52.89189 1.64767 37059 ft 516 kts 38°
2026-04-24 06:07 52.92062 1.68208 37344 ft 516 kts 38°
2026-04-24 06:07 52.94974 1.71701 37628 ft 515 kts 38°
2026-04-24 06:07 52.97872 1.75184 37891 ft 514 kts 38°
2026-04-24 06:08 53.00777 1.78680 38176 ft 514 kts 38°
2026-04-24 06:08 53.03667 1.82165 38453 ft 513 kts 38°
2026-04-24 06:08 53.06520 1.85610 38683 ft 512 kts 38°
2026-04-24 06:08 53.09411 1.89108 38943 ft 512 kts 38°
2026-04-24 06:09 53.12293 1.92600 39141 ft 511 kts 38°
2026-04-24 06:09 53.15173 1.96096 39335 ft 510 kts 38°
2026-04-24 06:09 53.18037 1.99578 39541 ft 509 kts 37°
2026-04-24 06:09 53.20892 2.03056 39718 ft 508 kts 37°
2026-04-24 06:10 53.26596 2.10018 39808 ft 513 kts 37°
2026-04-24 06:10 53.29516 2.13453 39953 ft 512 kts 36°
2026-04-24 06:11 53.35420 2.20098 40367 ft 509 kts 34°
2026-04-24 06:11 53.38363 2.23392 40560 ft 507 kts 34°
2026-04-24 06:11 53.41290 2.26686 40702 ft 507 kts 34°
2026-04-24 06:11 53.44208 2.29996 40869 ft 506 kts 35°
2026-04-24 06:12 53.47077 2.33267 41012 ft 505 kts 35°
2026-04-24 06:12 53.49988 2.36622 41151 ft 504 kts 36°
2026-04-24 06:12 53.52823 2.40084 41292 ft 503 kts 37°
2026-04-24 06:13 53.58379 2.47192 41380 ft 504 kts 38°
2026-04-24 06:13 53.63956 2.54363 41371 ft 504 kts 38°
2026-04-24 06:14 53.69566 2.61515 41362 ft 504 kts 37°
2026-04-24 06:14 53.75177 2.68652 41375 ft 505 kts 37°
2026-04-24 06:15 53.80766 2.75777 41362 ft 505 kts 37°
2026-04-24 06:15 53.86377 2.82956 41369 ft 505 kts 37°
2026-04-24 06:16 53.91943 2.90107 41375 ft 505 kts 37°
2026-04-24 06:16 53.97542 2.97325 41380 ft 505 kts 37°
2026-04-24 06:17 54.03144 3.04572 41386 ft 504 kts 37°
2026-04-24 06:17 54.08725 3.11816 41385 ft 504 kts 37°
2026-04-24 06:18 54.14273 3.19044 41375 ft 504 kts 37°
2026-04-24 06:18 54.19841 3.26322 41380 ft 504 kts 37°
2026-04-24 06:19 54.25418 3.33638 41381 ft 504 kts 37°
2026-04-24 06:19 54.30942 3.40908 41374 ft 504 kts 37°
2026-04-24 06:20 54.36490 3.48236 41377 ft 504 kts 37°
2026-04-24 06:20 54.42047 3.55601 41377 ft 504 kts 37°
2026-04-24 06:21 54.47562 3.62938 41375 ft 503 kts 37°
2026-04-24 06:21 54.53094 3.70322 41369 ft 503 kts 37°
2026-04-24 06:22 54.58623 3.77730 41366 ft 503 kts 37°
2026-04-24 06:22 54.64150 3.85159 41369 ft 503 kts 37°
2026-04-24 06:23 54.69652 3.92581 41365 ft 503 kts 37°
2026-04-24 06:23 54.75170 4.00052 41361 ft 502 kts 37°
2026-04-24 06:24 54.80674 4.07529 41358 ft 502 kts 37°
2026-04-24 06:24 54.86076 4.15133 41340 ft 503 kts 43°
2026-04-24 06:25 54.90140 4.22373 41332 ft 503 kts 46°
2026-04-24 06:25 54.94899 4.31312 41336 ft 503 kts 46°
2026-04-24 06:26 54.99626 4.40336 41314 ft 503 kts 46°
2026-04-24 06:26 55.04346 4.49366 41313 ft 504 kts 46°
2026-04-24 06:27 55.09039 4.58353 41317 ft 504 kts 46°
2026-04-24 06:27 55.13764 4.67425 41314 ft 504 kts 46°
2026-04-24 06:28 55.18490 4.76535 41325 ft 504 kts 46°
2026-04-24 06:28 55.23162 4.85577 41328 ft 504 kts 46°
2026-04-24 06:29 55.27868 4.94717 41325 ft 504 kts 46°
2026-04-24 06:29 55.32283 5.04300 41325 ft 505 kts 52°
2026-04-24 06:30 55.36353 5.14267 41316 ft 505 kts 53°
2026-04-24 06:30 55.40393 5.24392 41312 ft 505 kts 54°
2026-04-24 06:31 55.44426 5.34548 41315 ft 505 kts 53°
2026-04-24 06:31 55.48427 5.44636 41311 ft 505 kts 53°
2026-04-24 06:32 55.52457 5.54826 41313 ft 505 kts 53°
2026-04-24 06:32 55.56451 5.64967 41301 ft 506 kts 53°
2026-04-24 06:33 55.60464 5.75195 41302 ft 506 kts 53°
2026-04-24 06:33 55.64468 5.85447 41289 ft 506 kts 53°
2026-04-24 06:34 55.68469 5.95734 41288 ft 506 kts 53°
2026-04-24 06:34 55.72428 6.05956 41286 ft 506 kts 53°
2026-04-24 06:35 55.76405 6.16267 41274 ft 506 kts 53°
2026-04-24 06:35 55.80374 6.26603 41275 ft 506 kts 53°
2026-04-24 06:36 55.84338 6.36966 41258 ft 507 kts 53°
2026-04-24 06:36 55.88298 6.47363 41259 ft 507 kts 53°
2026-04-24 06:37 55.92216 6.57693 41251 ft 507 kts 53°
2026-04-24 06:37 55.96180 6.68097 41241 ft 506 kts 52°
2026-04-24 06:38 56.00329 6.78265 41241 ft 506 kts 51°
2026-04-24 06:38 56.04514 6.88390 41233 ft 505 kts 51°
2026-04-24 06:39 56.08653 6.98541 41232 ft 505 kts 51°
2026-04-24 06:39 56.12769 7.08753 41224 ft 505 kts 51°
2026-04-24 06:40 56.16851 7.18938 41222 ft 506 kts 51°
2026-04-24 06:40 56.20953 7.29217 41217 ft 506 kts 52°
2026-04-24 06:41 56.25051 7.39527 41209 ft 506 kts 52°
2026-04-24 06:41 56.29118 7.49799 41211 ft 506 kts 52°
2026-04-24 06:42 56.33191 7.60134 41196 ft 505 kts 52°
2026-04-24 06:42 56.37258 7.70494 41194 ft 505 kts 52°
2026-04-24 06:43 56.41296 7.80822 41194 ft 505 kts 52°
2026-04-24 06:43 56.45350 7.91239 41189 ft 505 kts 52°
2026-04-24 06:44 56.49358 8.01578 41187 ft 505 kts 52°
2026-04-24 06:44 56.53386 8.12017 41187 ft 505 kts 52°
2026-04-24 06:45 56.57391 8.22440 41174 ft 506 kts 52°
2026-04-24 06:45 56.61401 8.32922 41164 ft 505 kts 52°
2026-04-24 06:46 56.65409 8.43440 41155 ft 505 kts 52°
2026-04-24 06:46 56.69400 8.53961 41154 ft 505 kts 52°
2026-04-24 06:47 56.73379 8.64498 41154 ft 505 kts 52°
2026-04-24 06:47 56.77333 8.75014 41140 ft 505 kts 52°
2026-04-24 06:48 56.81302 8.85613 41151 ft 505 kts 52°
2026-04-24 06:48 56.85232 8.96158 41132 ft 504 kts 52°
2026-04-24 06:49 56.89183 9.06803 41131 ft 504 kts 52°
2026-04-24 06:49 56.93119 9.17454 41131 ft 504 kts 52°
2026-04-24 06:50 56.97043 9.28122 41128 ft 504 kts 53°
2026-04-24 06:50 57.00936 9.38750 41128 ft 504 kts 53°
2026-04-24 06:51 57.04848 9.49481 41137 ft 503 kts 53°
2026-04-24 06:51 57.08737 9.60195 41126 ft 503 kts 53°
2026-04-24 06:52 57.12589 9.70853 41134 ft 503 kts 53°
2026-04-24 06:52 57.16455 9.81596 41126 ft 503 kts 53°
2026-04-24 06:53 57.20290 9.92300 41129 ft 503 kts 53°
2026-04-24 06:53 57.24146 10.03114 41135 ft 503 kts 53°
2026-04-24 06:54 57.27977 10.13905 41133 ft 501 kts 53°
2026-04-24 06:54 57.31767 10.24635 41137 ft 499 kts 53°
2026-04-24 06:55 57.35560 10.35413 41141 ft 498 kts 53°
2026-04-24 06:55 57.39344 10.46213 41140 ft 498 kts 53°
2026-04-24 06:56 57.43092 10.56963 41142 ft 498 kts 54°
2026-04-24 06:56 57.46860 10.67816 41138 ft 498 kts 54°
2026-04-24 06:57 57.50590 10.78610 41139 ft 497 kts 54°
2026-04-24 06:57 57.54318 10.89450 41139 ft 496 kts 54°
2026-04-24 06:58 57.58011 11.00233 41134 ft 495 kts 54°
2026-04-24 06:58 57.61707 11.11075 41135 ft 495 kts 54°
2026-04-24 06:59 57.65383 11.21911 41130 ft 495 kts 54°
2026-04-24 06:59 57.68935 11.32971 41124 ft 496 kts 57°
2026-04-24 07:00 57.72323 11.44245 41117 ft 496 kts 58°
2026-04-24 07:00 57.75677 11.55414 41110 ft 495 kts 57°
2026-04-24 07:01 57.79073 11.66648 41106 ft 495 kts 57°
2026-04-24 07:01 57.82476 11.77899 41102 ft 495 kts 57°
2026-04-24 07:02 57.85848 11.89097 41103 ft 495 kts 58°
2026-04-24 07:02 57.89227 12.00378 41106 ft 495 kts 58°
2026-04-24 07:03 57.92601 12.11700 41115 ft 495 kts 58°
2026-04-24 07:03 57.95946 12.22980 41111 ft 495 kts 58°
2026-04-24 07:04 57.99276 12.34263 41116 ft 495 kts 58°
2026-04-24 07:04 58.02611 12.45622 41117 ft 494 kts 58°
2026-04-24 07:05 58.05936 12.56997 41114 ft 494 kts 58°
2026-04-24 07:05 58.09259 12.68427 41112 ft 494 kts 58°
2026-04-24 07:06 58.12545 12.79784 41113 ft 494 kts 58°
2026-04-24 07:06 58.15842 12.91232 41112 ft 494 kts 58°
2026-04-24 07:07 58.19128 13.02700 41110 ft 495 kts 59°
2026-04-24 07:07 58.24019 13.19879 41110 ft 494 kts 59°
2026-04-24 07:08 58.27282 13.31409 41110 ft 494 kts 59°
2026-04-24 07:08 58.30530 13.42947 41111 ft 494 kts 59°
2026-04-24 07:09 58.33748 13.54433 41104 ft 494 kts 59°
2026-04-24 07:09 58.36975 13.66010 41103 ft 493 kts 59°
2026-04-24 07:10 58.40183 13.77578 41099 ft 493 kts 59°
2026-04-24 07:10 58.43382 13.89175 41098 ft 494 kts 59°
2026-04-24 07:11 58.46556 14.00734 41096 ft 494 kts 59°
2026-04-24 07:11 58.49737 14.12382 41065 ft 494 kts 59°
2026-04-24 07:12 58.52913 14.24073 41080 ft 494 kts 59°
2026-04-24 07:12 58.56075 14.35772 41048 ft 494 kts 60°
2026-04-24 07:13 58.58695 14.45508 41051 ft 494 kts 60°
2026-04-24 07:13 58.61842 14.57262 41046 ft 494 kts 60°
2026-04-24 07:14 58.64981 14.69047 41052 ft 495 kts 60°
2026-04-24 07:14 58.68089 14.80773 41054 ft 495 kts 60°
2026-04-24 07:15 58.71214 14.92630 41066 ft 496 kts 60°
2026-04-24 07:15 58.74304 15.04417 41067 ft 495 kts 60°
2026-04-24 07:16 58.77404 15.16301 41059 ft 495 kts 60°
2026-04-24 07:16 58.80487 15.28181 41057 ft 495 kts 60°
2026-04-24 07:17 58.83564 15.40109 41054 ft 495 kts 60°
2026-04-24 07:17 58.86614 15.51989 41051 ft 495 kts 60°
2026-04-24 07:18 58.89668 15.63952 41048 ft 495 kts 60°
2026-04-24 07:18 58.92694 15.75865 41057 ft 495 kts 60°
2026-04-24 07:19 58.95723 15.87861 41037 ft 495 kts 60°
2026-04-24 07:19 58.98745 15.99888 41027 ft 495 kts 60°
2026-04-24 07:20 59.01733 16.11849 41042 ft 495 kts 60°
2026-04-24 07:20 59.04730 16.23909 41025 ft 494 kts 61°
2026-04-24 07:21 59.07707 16.35958 41017 ft 494 kts 61°
2026-04-24 07:21 59.10678 16.48044 41017 ft 494 kts 61°
2026-04-24 07:22 59.13613 16.60053 41013 ft 494 kts 61°
2026-04-24 07:22 59.16556 16.72161 40997 ft 493 kts 61°
2026-04-24 07:23 59.19483 16.84269 40997 ft 493 kts 61°
2026-04-24 07:23 59.22400 16.96402 40993 ft 493 kts 62°
2026-04-24 07:24 59.25301 17.08538 40993 ft 492 kts 62°
2026-04-24 07:24 59.28169 17.20602 40990 ft 492 kts 62°
2026-04-24 07:25 59.31045 17.32766 41004 ft 492 kts 62°
2026-04-24 07:25 59.33913 17.44969 40984 ft 492 kts 62°
2026-04-24 07:26 59.36755 17.57128 40975 ft 493 kts 62°
2026-04-24 07:26 59.39600 17.69370 40974 ft 493 kts 62°
2026-04-24 07:27 59.42439 17.81654 40985 ft 493 kts 62°
2026-04-24 07:27 59.45243 17.93859 40995 ft 493 kts 62°
2026-04-24 07:28 59.48055 18.06170 40982 ft 493 kts 62°
2026-04-24 07:28 59.50854 18.18491 40984 ft 492 kts 62°
2026-04-24 07:29 59.53628 18.30777 40979 ft 493 kts 62°
2026-04-24 07:29 59.56406 18.43147 40975 ft 493 kts 63°
2026-04-24 07:30 59.59188 18.55510 40987 ft 492 kts 62°
2026-04-24 07:30 59.61977 18.67780 40968 ft 491 kts 62°
2026-04-24 07:31 59.64766 18.80120 40968 ft 491 kts 62°
2026-04-24 07:31 59.67531 18.92455 40985 ft 491 kts 62°
2026-04-24 07:32 59.70289 19.04847 40968 ft 490 kts 62°
2026-04-24 07:32 59.73008 19.17140 40963 ft 490 kts 62°
2026-04-24 07:33 59.75737 19.29548 40960 ft 490 kts 63°
2026-04-24 07:33 59.78358 19.41530 40955 ft 490 kts 63°
2026-04-24 07:34 59.81067 19.53990 40955 ft 490 kts 63°
2026-04-24 07:34 59.83741 19.66363 40944 ft 490 kts 63°
2026-04-24 07:35 59.86422 19.78844 40946 ft 490 kts 63°
2026-04-24 07:35 59.89092 19.91348 40941 ft 490 kts 63°
2026-04-24 07:36 59.91750 20.03866 40940 ft 490 kts 63°
2026-04-24 07:36 59.94375 20.16307 40938 ft 490 kts 63°
2026-04-24 07:37 59.97008 20.28867 40936 ft 489 kts 63°
2026-04-24 07:37 59.99620 20.41406 40932 ft 488 kts 63°
2026-04-24 07:38 60.02202 20.53869 40640 ft 487 kts 63°
2026-04-24 07:38 60.03510 20.60214 40383 ft 487 kts 63°
2026-04-24 07:38 60.04781 20.66400 40156 ft 486 kts 63°
2026-04-24 07:39 60.06067 20.72673 39920 ft 486 kts 63°
2026-04-24 07:39 60.07351 20.78959 39686 ft 486 kts 63°
2026-04-24 07:39 60.08616 20.85167 39359 ft 484 kts 63°
2026-04-24 07:39 60.09882 20.91414 38799 ft 482 kts 62°
2026-04-24 07:40 60.11148 20.97668 38074 ft 482 kts 62°
2026-04-24 07:40 60.12402 21.03879 37393 ft 481 kts 63°
2026-04-24 07:40 60.13038 21.07038 37081 ft 480 kts 63°
2026-04-24 07:41 60.14286 21.13254 36432 ft 479 kts 62°
2026-04-24 07:41 60.15531 21.19466 35755 ft 478 kts 62°
2026-04-24 07:41 60.16772 21.25680 35067 ft 478 kts 62°
2026-04-24 07:41 60.18012 21.31902 34284 ft 481 kts 62°
2026-04-24 07:42 60.19260 21.38179 33455 ft 484 kts 62°
2026-04-24 07:42 60.20323 21.44648 32663 ft 490 kts 70°
2026-04-24 07:42 60.21118 21.51247 31941 ft 491 kts 71°
2026-04-24 07:42 60.21858 21.57928 31414 ft 486 kts 72°
2026-04-24 07:43 60.22558 21.64585 30847 ft 483 kts 72°
2026-04-24 07:43 60.23228 21.71101 30289 ft 480 kts 72°
2026-04-24 07:43 60.23899 21.77677 29695 ft 477 kts 72°
2026-04-24 07:43 60.24562 21.84205 29093 ft 472 kts 72°
2026-04-24 07:44 60.25217 21.90653 28550 ft 467 kts 72°
2026-04-24 07:44 60.25858 21.96972 27999 ft 463 kts 71°
2026-04-24 07:44 60.26501 22.03308 27468 ft 459 kts 71°
2026-04-24 07:44 60.27123 22.09465 26939 ft 455 kts 71°
2026-04-24 07:45 60.27763 22.15815 26405 ft 451 kts 71°
2026-04-24 07:45 60.28382 22.21989 25863 ft 447 kts 71°
2026-04-24 07:45 60.28995 22.28134 25322 ft 444 kts 71°
2026-04-24 07:45 60.29591 22.34135 24785 ft 441 kts 71°
2026-04-24 07:46 60.30188 22.40175 24267 ft 438 kts 71°
2026-04-24 07:46 60.30782 22.46212 23717 ft 435 kts 71°
2026-04-24 07:46 60.31366 22.52180 23183 ft 432 kts 71°
2026-04-24 07:46 60.31937 22.58052 22585 ft 428 kts 71°
2026-04-24 07:47 60.32506 22.63944 22040 ft 424 kts 71°
2026-04-24 07:47 60.33066 22.69747 21537 ft 418 kts 70°
2026-04-24 07:47 60.33615 22.75490 21045 ft 414 kts 70°
2026-04-24 07:47 60.34149 22.81114 20508 ft 410 kts 70°
2026-04-24 07:48 60.34681 22.86745 20012 ft 406 kts 70°
2026-04-24 07:48 60.35207 22.92332 19468 ft 402 kts 70°
2026-04-24 07:48 60.35726 22.97868 18958 ft 399 kts 70°
2026-04-24 07:48 60.36237 23.03344 18444 ft 396 kts 70°
2026-04-24 07:49 60.36743 23.08791 17902 ft 393 kts 70°
2026-04-24 07:49 60.37244 23.14198 17362 ft 389 kts 70°
2026-04-24 07:49 60.37734 23.19532 16873 ft 384 kts 70°
2026-04-24 07:49 60.38219 23.24827 16347 ft 380 kts 70°
2026-04-24 07:50 60.38695 23.30047 15865 ft 375 kts 70°
2026-04-24 07:50 60.39158 23.35152 15342 ft 372 kts 71°
2026-04-24 07:50 60.39620 23.40263 14879 ft 367 kts 71°
2026-04-24 07:50 60.40084 23.45378 14028 ft 373 kts 71°
2026-04-24 07:51 60.40560 23.50611 13061 ft 377 kts 72°
2026-04-24 07:51 60.41026 23.55829 12028 ft 377 kts 72°
2026-04-24 07:51 60.41479 23.60955 11013 ft 370 kts 73°
2026-04-24 07:51 60.41920 23.66008 10302 ft 355 kts 73°
2026-04-24 07:52 60.42329 23.70764 10037 ft 328 kts 73°
2026-04-24 07:52 60.42701 23.75129 9917 ft 301 kts 72°
2026-04-24 07:52 60.43047 23.79146 9783 ft 282 kts 72°
2026-04-24 07:52 60.43367 23.83111 9710 ft 291 kts 77°
2026-04-24 07:53 60.43271 23.87239 9685 ft 303 kts 95°
2026-04-24 07:53 60.42511 23.91239 9481 ft 309 kts 112°
2026-04-24 07:53 60.41474 23.95045 9204 ft 309 kts 114°
2026-04-24 07:53 60.40408 23.98780 8975 ft 305 kts 115°
2026-04-24 07:54 60.39338 24.02512 8636 ft 306 kts 115°
2026-04-24 07:54 60.38270 24.06229 8256 ft 304 kts 115°
2026-04-24 07:54 60.37213 24.09909 7845 ft 302 kts 115°
2026-04-24 07:54 60.36165 24.13544 7596 ft 296 kts 115°
2026-04-24 07:55 60.35124 24.17150 7299 ft 297 kts 115°
2026-04-24 07:55 60.34126 24.20605 6968 ft 296 kts 115°
2026-04-24 07:55 60.33087 24.24185 6580 ft 293 kts 115°
2026-04-24 07:55 60.32060 24.27737 6191 ft 292 kts 116°
2026-04-24 07:56 60.31037 24.31266 5787 ft 289 kts 116°
2026-04-24 07:56 60.30017 24.34763 5392 ft 286 kts 116°
2026-04-24 07:56 60.29010 24.38217 5042 ft 284 kts 115°
2026-04-24 07:56 60.28010 24.41631 4653 ft 281 kts 115°
2026-04-24 07:57 60.27024 24.45011 4275 ft 278 kts 115°
2026-04-24 07:57 60.26044 24.48371 3900 ft 277 kts 116°
2026-04-24 07:57 60.25094 24.51622 3703 ft 266 kts 116°
2026-04-24 07:57 60.24171 24.54748 3645 ft 253 kts 115°
2026-04-24 07:58 60.23291 24.57727 3531 ft 242 kts 115°
2026-04-24 07:58 60.22460 24.60550 3434 ft 231 kts 114°
2026-04-24 07:58 60.21661 24.63270 3323 ft 221 kts 114°
2026-04-24 07:58 60.21112 24.65982 3204 ft 202 kts 90°
2026-04-24 07:59 60.21364 24.68545 2987 ft 180 kts 53°
2026-04-24 07:59 60.22120 24.70463 2771 ft 172 kts 42°
2026-04-24 07:59 60.22943 24.72184 2547 ft 170 kts 40°
2026-04-24 07:59 60.23487 24.73339 2401 ft 172 kts 42°
2026-04-24 08:00 60.24296 24.75120 2218 ft 173 kts 42°
2026-04-24 08:00 60.25387 24.77483 1893 ft 172 kts 42°
2026-04-24 08:00 60.25926 24.78661 1726 ft 165 kts 42°
2026-04-24 08:00 60.26668 24.80286 1498 ft 155 kts 43°
2026-04-24 08:01 60.27392 24.81884 1304 ft 153 kts 41°
2026-04-24 08:01 60.28092 24.83401 1082 ft 142 kts 43°
2026-04-24 08:01 60.28744 24.84826 885 ft 134 kts 43°
2026-04-24 08:01 60.29367 24.86173 720 ft 131 kts 43°
2026-04-24 08:02 60.29978 24.87514 552 ft 132 kts 44°
2026-04-24 08:02 60.30610 24.88902 374 ft 135 kts 39°
2026-04-24 08:02 60.31251 24.90287 210 ft 135 kts 45°
2026-04-24 08:02 60.31855 24.91620 155 ft 115 kts 47°
2026-04-24 08:03 60.32322 24.92647 176 ft 87 kts 47°
2026-04-24 08:03 60.32668 24.93407 194 ft 59 kts 47°
2026-04-24 08:03 60.32925 24.93974 196 ft 51 kts 47°
2026-04-24 08:03 60.33049 24.94444 193 ft 29 kts 92°
2026-04-24 08:04 60.32961 24.94789 196 ft 30 kts 139°
2026-04-24 08:04 60.32781 24.94986 183 ft 29 kts 163°
2026-04-24 08:04 60.32588 24.95110 200 ft 28 kts 162°
2026-04-24 08:04 60.32400 24.95234 197 ft 27 kts 162°
2026-04-24 08:05 60.32241 24.95449 181 ft 29 kts 137°
2026-04-24 08:05 60.32090 24.95731 180 ft 27 kts 137°
2026-04-24 08:05 60.32009 24.95881 179 ft 16 kts 137°
2026-04-24 08:05 60.31908 24.95910 176 ft 17 kts 220°
2026-04-24 08:06 60.31820 24.95720 176 ft 18 kts 227°
2026-04-24 08:06 60.31747 24.95558 177 ft 13 kts 227°
2026-04-24 08:06 60.31670 24.95602 173 ft 13 kts 139°
2026-04-24 08:06 60.31599 24.95662 173 ft 11 kts 201°
2026-04-24 08:07 60.31565 24.95627 173 ft 3 kts 170°
2026-04-24 08:07 60.31547 24.95648 173 ft 4 kts 145°
2026-04-24 08:07 60.31525 24.95688 173 ft 5 kts 137°
2026-04-24 08:07 60.31515 24.95706 173 ft 1 kts 137°
2026-04-24 08:08 60.31515 24.95707 173 ft 0 kts 137°